Regional Weather Roundup
Issued by NWS Green Bay, WI

Home | Current Version | Previous Version | Text Only | Print | Product List | Glossary On
Versions: 1 2 3 4 5 6 7 8 9 10 11 12 13 14 15 16 17 18 19 20 21 22 23 24 25 26 27 28 29 30 31 32 33 34 35 36 37 38 39 40 41 42 43 44 45 46 47 48 49 50
000
ASUS43 KGRB 041611
RWRGRB

NORTH-CENTRAL AND NORTHEAST WISCONSIN REGIONAL WEATHER ROUNDUP
NATIONAL WEATHER SERVICE GREEN BAY WI
1100 AM CDT FRI SEP 04 2015

WIZ005-009-010>012-018-019-041700-
NORTH CENTRAL WISCONSIN

CITY           SKY/WX    TMP DP  RH WIND       PRES   REMARKS
IRONWOOD       SUNNY     75  64  69 SE9       30.01S
MANITOWISH WTR SUNNY     74  64  71 E8        30.08R
ARBOR VITAE    SUNNY     77  66  68 SE8       30.07S
EAGLE RIVER    SUNNY     75  59  58 E10       30.08S
LAND O LAKES   SUNNY     76  59  54 SE13G18   30.09F
RHINELANDER    SUNNY     76  63  64 E9        30.08S
PHILLIPS       SUNNY     74  65  72 SE8       30.06R
ANTIGO         SUNNY     74  65  74 SE9       30.08S
TOMAHAWK       SUNNY     75  65  70 E3        30.07S
MERRILL        MOSUNNY   75  66  75 S6        30.07S
$$

WIZ013-073-041700-
NORTHEAST WISCONSIN

CITY           SKY/WX    TMP DP  RH WIND       PRES   REMARKS
IRON MOUNTAIN  SUNNY     76  61  59 E7        30.07R
MARINETTE      MOSUNNY   72  63  73 E6        30.05R
OCONTO         PTSUNNY   72  68  85 NE5       30.04F
$$

WIZ017-030-035>037-045-041700-
CENTRAL WISCONSIN

CITY           SKY/WX    TMP DP  RH WIND       PRES   REMARKS
MEDFORD        MOSUNNY   71  65  82 SE10      30.07S
WAUSAU         PTSUNNY   71  64  78 SE9       30.06R
MOSINEE        CLOUDY    66  66 100 E8        30.08S
MARSHFIELD     CLOUDY    68  62  81 SE9       30.07S
WISC RAPIDS    CLOUDY    68  63  84 SE8       30.07S
STEVENS POINT  CLOUDY    66  64  91 SE5       30.07S
WAUPACA        CLOUDY    69  69  99 CALM      30.06S
SHAWANO        NOT AVBL
CLINTONVILLE   PTSUNNY   73  64  73 S5        30.05F
WAUTOMA        CLOUDY    70  66  86 CALM      30.07R
$$

WIZ038-039-048-051-041700-
FOX VALLEY

CITY           SKY/WX    TMP DP  RH WIND       PRES   REMARKS
NWS GREEN BAY  MOSUNNY   71  65  81 NE5       30.04F
APPLETON       CLOUDY    70  66  88 VRB6      30.05R
OSHKOSH        CLOUDY    70  64  81 CALM      30.05S
FOND DU LAC    CLOUDY    71  65  81 CALM      30.06R
$$

WIZ022-050-052-041700-
EAST CENTRAL WISCONSIN

CITY           SKY/WX    TMP DP  RH WIND       PRES   REMARKS
EPHRAIM        FAIR      73  66  80 E7        30.05S
STURGEON BAY   CLOUDY    72  64  78 E3        30.07S
MANITOWOC      CLOUDY    70  66  87 MISG      30.05S
SHEBOYGAN      CLOUDY    69  66  90 NE6       30.05R
$$

LMZ563-521-522-541>543-041700-
LAKESHORE

STATION/POSITION TIME  TEMP    WIND        PRES    VSBY  WAVE
                       AIR SEA DIR/SP/G                  HT/PER
                 (UTC) (F)     (DEG/KT/KT) (MB)    (MI)  (FT/S)
SHEBOYGAN LKSHOR 1600   62     340/  8/  9 1017.8R
KEWAUNEE LKSHORE 1500   68      30/  2/  5 1016.4R
ALGOMA MARINA    1544           70/  8/  8   N/A
NORTHPORT PIER   1500   69     100/  5/  7 1017.3R
N MID LAKE BUOY  1550   67 66  120/  8/  8 1017.0R         2/ 4
S GREEN BAY BUOY 1530   66 67  340/  4/  6 1018.8R
SISTER BAY LKSHO 1511   75     120/  8/ 13   N/A
CHAMBERS ISLAND  1500   70     340/  5/  7 1017.6R
MENOMINEE LKSHOR 1500   66      10/  9/  9 1016.3R
$$



USA.gov is the U.S. government's official web portal to all federal, state and local government web resources and services.